Pineville, WV

5:39 PM EDT on May 25, 2017 (GMT -0400)
Pineville

Weather History for KI16 - June, 2013

Change the Weather History Date:

Wednesday, June 19, 2013

  Actual Average (KBKW) Record (KBKW)
Temperature  
Mean Temperature 72 °F -  
Max Temperature 83 °F 78 °F 90 °F (1944)
Min Temperature 62 °F 58 °F 36 °F (1959)
Cooling Degree Days 8    
Growing Degree Days 22 (Base 50)    
Moisture  
Dew Point 65 °F    
Average Humidity 88    
Maximum Humidity 100    
Minimum Humidity 48    
Precipitation  
Precipitation 0.00 in - - ()
Sea Level Pressure  
Sea Level Pressure 30.12 in    
Wind  
Wind Speed - (North)    
Max Wind Speed -    
Max Gust Speed -    
Visibility 6 miles    
Events Fog    
Averages and records for this station are not official NWS values.
T = Trace of Precipitation, MM = Missing Value Source: NWS Daily Summary

Daily Weather History Graph

Daily Weather History Graph

Search for Another Location

Airport or City:

Trip Planner

Search our weather history database for the weather conditions in past years. The results will help you decide how hot, cold, wet, or windy it might be!

Date:

Astronomy

Jun. 19, 2013 Rise Set
Actual Time 6:04 AM EDT 8:50 PM EDT
Civil Twilight 5:33 AM EDT 9:21 PM EDT
Nautical Twilight 4:54 AM EDT 10:00 PM EDT
Astronomical Twilight 4:10 AM EDT 10:45 PM EDT
Moon 4:44 PM EDT (6/19) 2:44 AM EDT (6/19)
Length of Visible Light 15h 48m
Length of Day
14h 45m
Waxing Gibbous, 80% of the Moon is Illuminated
Jun 19
Waxing Gibbous
Jun 23
Full
Jun 30
Last Quarter
Jul 8
New
Jul 15
First Quarter

Hourly Weather History & Observations

Time (EDT) Temp. Heat Index Dew Point Humidity Pressure Visibility Wind Dir Wind Speed Gust Speed Precip Events Conditions
12:15 AM 62.8 °F - 62.8 °F 100% 30.06 in 1.5 mi North - - N/A   Overcast
12:35 AM 63.0 °F - 63.0 °F 100% 30.06 in 0.2 mi North - - N/A Fog Fog
12:55 AM 63.1 °F - 63.1 °F 100% 30.06 in 0.5 mi North - - N/A Fog Fog
1:15 AM 63.1 °F - 63.1 °F 100% 30.06 in 0.5 mi North - - N/A Fog Fog
1:35 AM 63.1 °F - 63.1 °F 100% 30.05 in 0.5 mi North - - N/A Fog Fog
1:55 AM 63.3 °F - 63.3 °F 100% 30.05 in 0.5 mi North - - N/A Fog Fog
2:15 AM 63.7 °F - 63.7 °F 100% 30.04 in 0.2 mi North - - N/A Fog Fog
2:35 AM 63.7 °F - 63.7 °F 100% 30.05 in 0.2 mi North - - N/A Fog Fog
2:55 AM 63.7 °F - 63.7 °F 100% 30.05 in 0.2 mi North - - N/A Fog Fog
3:15 AM 63.5 °F - 63.5 °F 100% 30.05 in 0.2 mi North - - N/A Fog Fog
3:35 AM 63.1 °F - 63.1 °F 100% 30.06 in 0.2 mi North - - N/A Fog Fog
3:55 AM 63.3 °F - 63.3 °F 100% 30.05 in 0.2 mi North - - N/A Fog Fog
4:15 AM 62.8 °F - 62.8 °F 100% 30.05 in 0.5 mi North - - N/A Fog Fog
4:35 AM 62.6 °F - 62.6 °F 100% 30.05 in 2.5 mi North - - N/A   Overcast
4:55 AM 62.6 °F - 62.6 °F 100% 30.06 in 2.5 mi North - - N/A   Overcast
5:15 AM 62.6 °F - 62.6 °F 100% 30.06 in 2.0 mi North - - N/A   Overcast
5:35 AM 62.6 °F - 62.6 °F 100% 30.07 in 1.0 mi North - - N/A   Overcast
5:55 AM 63.0 °F - 63.0 °F 100% 30.07 in 1.5 mi North - - N/A   Overcast
6:15 AM 63.0 °F - 63.0 °F 100% 30.08 in 0.8 mi North - - N/A   Overcast
6:35 AM 63.1 °F - 63.1 °F 100% 30.08 in 0.2 mi North - - N/A Fog Fog
6:55 AM 63.1 °F - 63.1 °F 100% 30.09 in 0.2 mi North - - N/A Fog Fog
7:15 AM 63.7 °F - 63.7 °F 100% 30.10 in 0.2 mi North - - N/A Fog Fog
7:35 AM 63.7 °F - 63.7 °F 100% 30.10 in 0.2 mi North - - N/A Fog Fog
7:55 AM 64.4 °F - 64.4 °F 100% 30.11 in 1.2 mi North - - N/A   Overcast
8:15 AM 65.3 °F - 65.3 °F 100% 30.12 in 4.0 mi North - - N/A   Overcast
8:35 AM 65.3 °F - 65.3 °F 100% 30.13 in 7.0 mi North - - N/A   Overcast
8:55 AM 65.5 °F - 65.5 °F 100% 30.13 in 7.0 mi North - - N/A   Overcast
9:15 AM 66.6 °F - 66.6 °F 100% 30.14 in 10.0 mi North - - N/A   Overcast
9:35 AM 66.7 °F - 66.7 °F 100% 30.14 in 7.0 mi North - - N/A   Overcast
9:55 AM 67.3 °F - 67.3 °F 100% 30.14 in 7.0 mi North - - N/A   Overcast
10:15 AM 67.3 °F - 67.1 °F 99% 30.14 in 7.0 mi North - - N/A   Overcast
10:35 AM 67.6 °F - 67.1 °F 98% 30.14 in 7.0 mi North - - N/A   Overcast
10:55 AM 69.1 °F - 68.0 °F 96% 30.15 in 10.0 mi North - - N/A   Overcast
11:15 AM 70.0 °F - 68.0 °F 93% 30.15 in 10.0 mi North - - N/A   Overcast
11:35 AM 71.8 °F - 68.9 °F 91% 30.15 in 10.0 mi North - - N/A   Scattered Clouds
11:55 AM 73.8 °F - 68.0 °F 82% 30.15 in 10.0 mi North - - N/A   Scattered Clouds
12:15 PM 75.4 °F - 67.1 °F 75% 30.15 in 10.0 mi North - - N/A   Mostly Cloudy
12:35 PM 74.8 °F - 67.8 °F 79% 30.15 in 10.0 mi North - - N/A   Mostly Cloudy
12:55 PM 77.4 °F - 67.5 °F 71% 30.15 in 10.0 mi North - - N/A   Mostly Cloudy
1:15 PM 79.2 °F - 66.7 °F 66% 30.15 in 10.0 mi North - - N/A   Mostly Cloudy
2:15 PM 81.1 °F 83.1 °F 65.7 °F 59% 30.14 in 10.0 mi North - - N/A   Scattered Clouds
3:15 PM 82.9 °F 84.0 °F 63.1 °F 51% 30.13 in 10.0 mi North - - N/A   Clear
3:35 PM 83.7 °F 84.3 °F 62.1 °F 48% 30.12 in 10.0 mi North - - N/A   Clear
3:55 PM 81.5 °F 82.9 °F 63.7 °F 55% 30.12 in 10.0 mi North - - N/A   Scattered Clouds
4:15 PM 82.0 °F 83.8 °F 64.8 °F 56% 30.13 in 10.0 mi North - - N/A   Scattered Clouds
4:35 PM 82.2 °F 84.0 °F 65.1 °F 56% 30.13 in 10.0 mi North - - N/A   Clear
4:55 PM 82.6 °F 84.5 °F 65.7 °F 56% 30.13 in 10.0 mi North - - N/A   Scattered Clouds
5:15 PM 80.8 °F 82.5 °F 64.6 °F 58% 30.13 in 10.0 mi North - - N/A   Scattered Clouds
5:35 PM 81.9 °F 83.7 °F 65.3 °F 57% 30.13 in 10.0 mi North - - N/A   Mostly Cloudy
5:55 PM 81.5 °F 83.6 °F 65.8 °F 59% 30.13 in 10.0 mi North - - N/A   Scattered Clouds
6:15 PM 80.1 °F 82.0 °F 65.3 °F 61% 30.13 in 10.0 mi North - - N/A   Clear
6:35 PM 79.5 °F - 66.4 °F 64% 30.13 in 10.0 mi North - - N/A   Clear
6:55 PM 78.3 °F - 66.7 °F 68% 30.14 in 10.0 mi North - - N/A   Clear
7:15 PM 77.0 °F - 66.4 °F 70% 30.14 in 10.0 mi North - - N/A   Clear
7:35 PM 74.3 °F - 66.6 °F 77% 30.14 in 10.0 mi North - - N/A   Clear
7:55 PM 72.9 °F - 67.3 °F 83% 30.15 in 10.0 mi North - - N/A   Clear
8:15 PM 70.7 °F - 67.3 °F 89% 30.15 in 10.0 mi North - - N/A   Clear
8:35 PM 69.3 °F - 67.3 °F 93% 30.16 in 10.0 mi North - - N/A   Clear
8:55 PM 68.2 °F - 67.1 °F 96% 30.16 in 7.0 mi North - - N/A   Clear
9:15 PM 67.1 °F - 66.2 °F 97% 30.17 in 7.0 mi North - - N/A   Clear
9:35 PM 66.4 °F - 66.0 °F 99% 30.18 in 5.0 mi North - - N/A   Clear
9:55 PM 65.5 °F - 65.3 °F 99% 30.19 in 7.0 mi North - - N/A   Clear
10:15 PM 64.8 °F - 64.8 °F 100% 30.20 in 5.0 mi North - - N/A   Clear
10:35 PM 64.0 °F - 63.9 °F 99% 30.20 in 5.0 mi North - - N/A   Clear
10:55 PM 63.5 °F - 63.5 °F 100% 30.21 in 5.0 mi North - - N/A   Clear
11:15 PM 63.3 °F - 63.3 °F 100% 30.21 in 5.0 mi North - - N/A   Clear
11:35 PM 62.8 °F - 62.8 °F 100% 30.22 in 5.0 mi North - - N/A   Clear
11:55 PM 62.6 °F - 62.6 °F 100% 30.22 in 4.0 mi North - - N/A   Clear